Park Rapids, MN

3:30 PM CDT on May 24, 2018 (GMT -0500)
Park Rapids Municipal

Weather History for KPKD - November, 2013

Change the Weather History Date:

Friday, November 29, 2013

  Actual Average Record
Temperature  
Mean Temperature 14 °F -  
Max Temperature 28 °F 28 °F 47 °F (1973)
Min Temperature 1 °F 9 °F -29 °F (1985)
Degree Days  
Heating Degree Days 50    
Moisture  
Dew Point 11 °F    
Average Humidity 74    
Maximum Humidity 88    
Minimum Humidity 58    
Precipitation  
Precipitation 0.00 in - - ()
Sea Level Pressure  
Sea Level Pressure 30.31 in    
Wind  
Wind Speed 8 mph (SSE)    
Max Wind Speed 22 mph    
Max Gust Speed 31 mph    
Visibility 10 miles    
Events      
Averages and records for this station are not official NWS values.
T = Trace of Precipitation, MM = Missing Value Source: NWS Daily Summary

Daily Weather History Graph

Daily Weather History Graph

Search for Another Location

Airport or City:

Astronomy

Nov. 29, 2013 Rise Set
Actual Time 7:42 AM CST 4:34 PM CST
Civil Twilight 7:08 AM CST 5:08 PM CST
Nautical Twilight 6:30 AM CST 5:46 PM CST
Astronomical Twilight 5:53 AM CST 6:23 PM CST
Moon 3:36 AM CST (11/29) 2:30 PM CST (11/29)
Length of Visible Light 10h 00m
Length of Day
8h 51m
Waning Crescent, 14% of the Moon is Illuminated
Nov 29
Waning Crescent
Dec 2
New
Dec 9
First Quarter
Dec 17
Full
Dec 25
Last Quarter

Hourly Weather History & Observations

Time (CST) Temp. Windchill Dew Point Humidity Pressure Visibility Wind Dir Wind Speed Gust Speed Precip Events Conditions
12:53 AM 3.0 °F - -2.0 °F 80% 30.52 in 10.0 mi Calm Calm - N/A   Clear
1:53 AM 1.0 °F - -4.0 °F 79% 30.53 in 10.0 mi Calm Calm - N/A   Clear
2:53 AM 8.1 °F -0.5 °F 3.9 °F 83% 30.51 in 10.0 mi SE 4.6 mph - N/A   Clear
3:53 AM 8.1 °F -3.2 °F 5.0 °F 87% 30.49 in 10.0 mi SE 6.9 mph - N/A   Clear
4:53 AM 9.0 °F -0.9 °F 6.1 °F 88% 30.49 in 10.0 mi SE 5.8 mph - N/A   Clear
5:53 AM 10.9 °F -0.8 °F 8.1 °F 88% 30.49 in 10.0 mi SSE 8.1 mph - N/A   Clear
6:53 AM 12.0 °F 0.5 °F 9.0 °F 88% 30.47 in 10.0 mi SE 8.1 mph - N/A   Partly Cloudy
7:53 AM 12.9 °F 0.7 °F 9.0 °F 84% 30.45 in 10.0 mi SE 9.2 mph - N/A   Scattered Clouds
8:53 AM 15.1 °F 1.1 °F 10.9 °F 84% 30.44 in 10.0 mi SSE 12.7 mph - N/A   Mostly Cloudy
9:53 AM 17.1 °F 2.5 °F 12.0 °F 81% 30.43 in 10.0 mi SE 15.0 mph - N/A   Overcast
10:53 AM 21.0 °F 5.0 °F 12.0 °F 68% 30.39 in 10.0 mi SSE 21.9 mph - N/A   Clear
11:53 AM 23.0 °F 8.7 °F 12.0 °F 63% 30.35 in 10.0 mi SSE 18.4 mph - N/A   Clear
12:53 PM 26.1 °F 12.0 °F 12.9 °F 58% 30.31 in 10.0 mi SSE 20.7 mph - N/A   Clear
1:53 PM 26.1 °F 11.6 °F 14.0 °F 60% 30.25 in 10.0 mi SE 21.9 mph - N/A   Clear
2:53 PM 28.0 °F 15.7 °F 15.1 °F 58% 30.20 in 10.0 mi SSE 17.3 mph - N/A   Clear
3:53 PM 26.1 °F 13.6 °F 14.0 °F 60% 30.19 in 10.0 mi SSE 16.1 mph 31.1 mph N/A   Partly Cloudy
4:53 PM 26.1 °F 12.7 °F 15.1 °F 63% 30.18 in 10.0 mi SSE 18.4 mph 24.2 mph N/A   Overcast
5:53 PM 26.1 °F 16.2 °F 15.1 °F 63% 30.18 in 10.0 mi SSE 10.4 mph - N/A   Overcast
6:53 PM 24.1 °F 13.1 °F 15.1 °F 69% 30.15 in 10.0 mi SSE 11.5 mph - N/A   Mostly Cloudy
7:53 PM 24.1 °F 13.7 °F 15.1 °F 69% 30.14 in 10.0 mi SSE 10.4 mph - N/A   Clear
8:53 PM 19.9 °F 9.3 °F 14.0 °F 78% 30.13 in 10.0 mi SE 9.2 mph - N/A   Clear
9:53 PM 19.9 °F 11.1 °F 15.1 °F 81% 30.10 in 10.0 mi SSE 6.9 mph - N/A   Clear
10:53 PM 23.0 °F 14.7 °F 17.1 °F 78% 30.08 in 10.0 mi SSE 6.9 mph - N/A   Clear
11:53 PM 23.0 °F 13.1 °F 17.1 °F 78% 30.06 in 10.0 mi South 9.2 mph - N/A   Clear